owner,sensor,date,latitude,longitude,air_temperature,qcFlag 
DISL,ioos:station:DISL:DISL:1,2010-12-01T00:00:00Z,30.2513,-88.0778,11.95,1111122 
DISL,ioos:station:DISL:DISL:1,2010-12-01T00:30:00Z,30.2513,-88.0778,11.74,1111122 
DISL,ioos:station:DISL:DISL:1,2010-12-01T01:00:00Z,30.2513,-88.0778,11.56,1111122 
DISL,ioos:station:DISL:DISL:1,2010-12-01T01:30:00Z,30.2513,-88.0778,11.59,1111122 
DISL,ioos:station:DISL:DISL:1,2010-12-01T02:00:00Z,30.2513,-88.0778,11.39,1111122 
DISL,ioos:station:DISL:DISL:1,2010-12-01T02:30:00Z,30.2513,-88.0778,10.46,1111122 
DISL,ioos:station:DISL:DISL:1,2010-12-01T03:00:00Z,30.2513,-88.0778,9.6,1111122 
DISL,ioos:station:DISL:DISL:1,2010-12-01T03:30:00Z,30.2513,-88.0778,9.31,1111122 
DISL,ioos:station:DISL:DISL:1,2010-12-01T04:00:00Z,30.2513,-88.0778,8.68,1111122 
DISL,ioos:station:DISL:DISL:1,2010-12-01T04:30:00Z,30.2513,-88.0778,8.78,1111122 
DISL,ioos:station:DISL:DISL:1,2010-12-01T05:00:00Z,30.2513,-88.0778,8.78,1111122 
DISL,ioos:station:DISL:DISL:1,2010-12-01T05:30:00Z,30.2513,-88.0778,8.49,1111122 
DISL,ioos:station:DISL:DISL:1,2010-12-01T06:00:00Z,30.2513,-88.0778,7.96,1111122 
DISL,ioos:station:DISL:DISL:1,2010-12-01T06:30:00Z,30.2513,-88.0778,7.63,1111122 
DISL,ioos:station:DISL:DISL:1,2010-12-01T07:00:00Z,30.2513,-88.0778,7.21,1111122 
DISL,ioos:station:DISL:DISL:1,2010-12-01T07:30:00Z,30.2513,-88.0778,6.825,1111122 
DISL,ioos:station:DISL:DISL:1,2010-12-01T08:00:00Z,30.2513,-88.0778,6.739,1111122 
DISL,ioos:station:DISL:DISL:1,2010-12-01T08:30:00Z,30.2513,-88.0778,6.642,1111122 
DISL,ioos:station:DISL:DISL:1,2010-12-01T09:00:00Z,30.2513,-88.0778,6.557,1111122 
DISL,ioos:station:DISL:DISL:1,2010-12-01T09:30:00Z,30.2513,-88.0778,6.219,1111122 
DISL,ioos:station:DISL:DISL:1,2010-12-01T10:00:00Z,30.2513,-88.0778,5.801,1111122 
DISL,ioos:station:DISL:DISL:1,2010-12-01T10:30:00Z,30.2513,-88.0778,5.946,1111122 
DISL,ioos:station:DISL:DISL:1,2010-12-01T11:00:00Z,30.2513,-88.0778,5.515,1111122 
DISL,ioos:station:DISL:DISL:1,2010-12-01T11:30:00Z,30.2513,-88.0778,5.544,1111122 
DISL,ioos:station:DISL:DISL:1,2010-12-01T12:00:00Z,30.2513,-88.0778,5.468,1111122 
DISL,ioos:station:DISL:DISL:1,2010-12-01T12:30:00Z,30.2513,-88.0778,5.037,1111122 
DISL,ioos:station:DISL:DISL:1,2010-12-01T13:00:00Z,30.2513,-88.0778,5.039,1111122 
DISL,ioos:station:DISL:DISL:1,2010-12-01T13:30:00Z,30.2513,-88.0778,5.402,1111122 
DISL,ioos:station:DISL:DISL:1,2010-12-01T14:00:00Z,30.2513,-88.0778,5.926,1111122 
DISL,ioos:station:DISL:DISL:1,2010-12-01T14:30:00Z,30.2513,-88.0778,6.327,1111122 
DISL,ioos:station:DISL:DISL:1,2010-12-01T15:00:00Z,30.2513,-88.0778,6.604,1111122 
DISL,ioos:station:DISL:DISL:1,2010-12-01T15:30:00Z,30.2513,-88.0778,7.16,1111122 
DISL,ioos:station:DISL:DISL:1,2010-12-01T16:00:00Z,30.2513,-88.0778,7.38,1111122 
DISL,ioos:station:DISL:DISL:1,2010-12-01T16:30:00Z,30.2513,-88.0778,7.76,1111122 
DISL,ioos:station:DISL:DISL:1,2010-12-01T17:00:00Z,30.2513,-88.0778,8.2,1111122 
DISL,ioos:station:DISL:DISL:1,2010-12-01T17:30:00Z,30.2513,-88.0778,8.4,1111122 
DISL,ioos:station:DISL:DISL:1,2010-12-01T18:00:00Z,30.2513,-88.0778,8.91,1111122 
DISL,ioos:station:DISL:DISL:1,2010-12-01T18:30:00Z,30.2513,-88.0778,9.26,1111122 
DISL,ioos:station:DISL:DISL:1,2010-12-01T19:00:00Z,30.2513,-88.0778,9.56,1111122 
DISL,ioos:station:DISL:DISL:1,2010-12-01T19:30:00Z,30.2513,-88.0778,9.92,1111122 
DISL,ioos:station:DISL:DISL:1,2010-12-01T20:00:00Z,30.2513,-88.0778,9.99,1111122 
DISL,ioos:station:DISL:DISL:1,2010-12-01T20:30:00Z,30.2513,-88.0778,10.62,1111122 
DISL,ioos:station:DISL:DISL:1,2010-12-01T21:00:00Z,30.2513,-88.0778,11.13,1111122 
DISL,ioos:station:DISL:DISL:1,2010-12-01T21:30:00Z,30.2513,-88.0778,11.89,1111122 
DISL,ioos:station:DISL:DISL:1,2010-12-01T22:00:00Z,30.2513,-88.0778,11.94,1111122 
DISL,ioos:station:DISL:DISL:1,2010-12-01T22:30:00Z,30.2513,-88.0778,12.05,1111122 
DISL,ioos:station:DISL:DISL:1,2010-12-01T23:00:00Z,30.2513,-88.0778,11.81,1111122 
DISL,ioos:station:DISL:DISL:1,2010-12-01T23:30:00Z,30.2513,-88.0778,11.77,1111122 
DISL,ioos:station:DISL:DISL:1,2010-12-02T00:00:00Z,30.2513,-88.0778,11.72,1111122 
DISL,ioos:station:DISL:DISL:1,2010-12-02T00:30:00Z,30.2513,-88.0778,11.78,1111122 
DISL,ioos:station:DISL:DISL:1,2010-12-02T01:00:00Z,30.2513,-88.0778,11.64,1111122 
DISL,ioos:station:DISL:DISL:1,2010-12-02T01:30:00Z,30.2513,-88.0778,11.68,1111122 
DISL,ioos:station:DISL:DISL:1,2010-12-02T02:00:00Z,30.2513,-88.0778,11.77,1111122 
DISL,ioos:station:DISL:DISL:1,2010-12-02T02:30:00Z,30.2513,-88.0778,11.81,1111122 
DISL,ioos:station:DISL:DISL:1,2010-12-02T03:00:00Z,30.2513,-88.0778,10.23,1111122 
DISL,ioos:station:DISL:DISL:1,2010-12-02T03:30:00Z,30.2513,-88.0778,9.82,1111122 
DISL,ioos:station:DISL:DISL:1,2010-12-02T04:00:00Z,30.2513,-88.0778,10.0,1111122 
DISL,ioos:station:DISL:DISL:1,2010-12-02T04:30:00Z,30.2513,-88.0778,9.91,1111122 
DISL,ioos:station:DISL:DISL:1,2010-12-02T05:00:00Z,30.2513,-88.0778,9.87,1111122 
DISL,ioos:station:DISL:DISL:1,2010-12-02T05:30:00Z,30.2513,-88.0778,9.89,1111122 
DISL,ioos:station:DISL:DISL:1,2010-12-02T06:00:00Z,30.2513,-88.0778,9.66,1111122 
DISL,ioos:station:DISL:DISL:1,2010-12-02T06:30:00Z,30.2513,-88.0778,9.27,1111122 
DISL,ioos:station:DISL:DISL:1,2010-12-02T07:00:00Z,30.2513,-88.0778,9.28,1111122 
DISL,ioos:station:DISL:DISL:1,2010-12-02T07:30:00Z,30.2513,-88.0778,9.36,1111122 
DISL,ioos:station:DISL:DISL:1,2010-12-02T08:00:00Z,30.2513,-88.0778,9.27,1111122 
DISL,ioos:station:DISL:DISL:1,2010-12-02T08:30:00Z,30.2513,-88.0778,9.15,1111122 
DISL,ioos:station:DISL:DISL:1,2010-12-02T09:00:00Z,30.2513,-88.0778,8.83,1111122 
DISL,ioos:station:DISL:DISL:1,2010-12-02T09:30:00Z,30.2513,-88.0778,8.88,1111122 
DISL,ioos:station:DISL:DISL:1,2010-12-02T10:00:00Z,30.2513,-88.0778,8.95,1111122 
DISL,ioos:station:DISL:DISL:1,2010-12-02T10:30:00Z,30.2513,-88.0778,9.14,1111122 
DISL,ioos:station:DISL:DISL:1,2010-12-02T11:00:00Z,30.2513,-88.0778,10.65,1111122 
DISL,ioos:station:DISL:DISL:1,2010-12-02T11:30:00Z,30.2513,-88.0778,10.59,1111122 
DISL,ioos:station:DISL:DISL:1,2010-12-02T12:00:00Z,30.2513,-88.0778,10.63,1111122 
DISL,ioos:station:DISL:DISL:1,2010-12-02T12:30:00Z,30.2513,-88.0778,10.83,1111122 
DISL,ioos:station:DISL:DISL:1,2010-12-02T13:00:00Z,30.2513,-88.0778,10.78,1111122 
DISL,ioos:station:DISL:DISL:1,2010-12-02T13:30:00Z,30.2513,-88.0778,10.82,1111122 
DISL,ioos:station:DISL:DISL:1,2010-12-02T14:00:00Z,30.2513,-88.0778,10.95,1111122 
DISL,ioos:station:DISL:DISL:1,2010-12-02T14:30:00Z,30.2513,-88.0778,10.8,1111122 
DISL,ioos:station:DISL:DISL:1,2010-12-02T15:00:00Z,30.2513,-88.0778,10.82,1111122 
DISL,ioos:station:DISL:DISL:1,2010-12-02T15:30:00Z,30.2513,-88.0778,10.85,1111122 
DISL,ioos:station:DISL:DISL:1,2010-12-02T16:00:00Z,30.2513,-88.0778,11.17,1111122 
DISL,ioos:station:DISL:DISL:1,2010-12-02T16:30:00Z,30.2513,-88.0778,11.2,1111122 
DISL,ioos:station:DISL:DISL:1,2010-12-02T17:00:00Z,30.2513,-88.0778,11.4,1111122 
DISL,ioos:station:DISL:DISL:1,2010-12-02T17:30:00Z,30.2513,-88.0778,11.67,1111122 
DISL,ioos:station:DISL:DISL:1,2010-12-02T18:00:00Z,30.2513,-88.0778,11.82,1111122 
DISL,ioos:station:DISL:DISL:1,2010-12-02T18:30:00Z,30.2513,-88.0778,12.04,1111122 
DISL,ioos:station:DISL:DISL:1,2010-12-02T19:00:00Z,30.2513,-88.0778,12.84,1111122 
DISL,ioos:station:DISL:DISL:1,2010-12-02T19:30:00Z,30.2513,-88.0778,13.81,1111122 
DISL,ioos:station:DISL:DISL:1,2010-12-02T20:00:00Z,30.2513,-88.0778,13.72,1111122 
DISL,ioos:station:DISL:DISL:1,2010-12-02T20:30:00Z,30.2513,-88.0778,13.66,1111122 
DISL,ioos:station:DISL:DISL:1,2010-12-02T21:00:00Z,30.2513,-88.0778,14.27,1111122 
DISL,ioos:station:DISL:DISL:1,2010-12-02T21:30:00Z,30.2513,-88.0778,14.45,1111122 
DISL,ioos:station:DISL:DISL:1,2010-12-02T22:00:00Z,30.2513,-88.0778,14.39,1111122 
DISL,ioos:station:DISL:DISL:1,2010-12-02T22:30:00Z,30.2513,-88.0778,13.38,1111122 
DISL,ioos:station:DISL:DISL:1,2010-12-02T23:00:00Z,30.2513,-88.0778,12.72,1111122 
DISL,ioos:station:DISL:DISL:1,2010-12-02T23:30:00Z,30.2513,-88.0778,12.1,1111122 
DISL,ioos:station:DISL:DISL:1,2010-12-03T00:00:00Z,30.2513,-88.0778,12.08,1111122 
DISL,ioos:station:DISL:DISL:1,2010-12-03T00:30:00Z,30.2513,-88.0778,11.97,1111122 
DISL,ioos:station:DISL:DISL:1,2010-12-03T01:00:00Z,30.2513,-88.0778,12.63,1111122 
DISL,ioos:station:DISL:DISL:1,2010-12-03T01:30:00Z,30.2513,-88.0778,12.53,1111122 
DISL,ioos:station:DISL:DISL:1,2010-12-03T02:00:00Z,30.2513,-88.0778,12.7,1111122 
DISL,ioos:station:DISL:DISL:1,2010-12-03T02:30:00Z,30.2513,-88.0778,12.49,1111122 
DISL,ioos:station:DISL:DISL:1,2010-12-03T03:00:00Z,30.2513,-88.0778,12.51,1111122 
DISL,ioos:station:DISL:DISL:1,2010-12-03T03:30:00Z,30.2513,-88.0778,12.84,1111122 
DISL,ioos:station:DISL:DISL:1,2010-12-03T04:00:00Z,30.2513,-88.0778,12.62,1111122 
DISL,ioos:station:DISL:DISL:1,2010-12-03T04:30:00Z,30.2513,-88.0778,12.04,1111122 
DISL,ioos:station:DISL:DISL:1,2010-12-03T05:00:00Z,30.2513,-88.0778,11.79,1111122 
DISL,ioos:station:DISL:DISL:1,2010-12-03T05:30:00Z,30.2513,-88.0778,12.12,1111122 
DISL,ioos:station:DISL:DISL:1,2010-12-03T06:00:00Z,30.2513,-88.0778,12.87,1111122 
DISL,ioos:station:DISL:DISL:1,2010-12-03T06:30:00Z,30.2513,-88.0778,12.87,1111122 
DISL,ioos:station:DISL:DISL:1,2010-12-03T07:00:00Z,30.2513,-88.0778,13.34,1111122 
DISL,ioos:station:DISL:DISL:1,2010-12-03T07:30:00Z,30.2513,-88.0778,12.72,1111122 
DISL,ioos:station:DISL:DISL:1,2010-12-03T08:00:00Z,30.2513,-88.0778,12.86,1111122 
DISL,ioos:station:DISL:DISL:1,2010-12-03T08:30:00Z,30.2513,-88.0778,11.82,1111122 
DISL,ioos:station:DISL:DISL:1,2010-12-03T09:00:00Z,30.2513,-88.0778,11.38,1111122 
DISL,ioos:station:DISL:DISL:1,2010-12-03T09:30:00Z,30.2513,-88.0778,12.09,1111122 
DISL,ioos:station:DISL:DISL:1,2010-12-03T10:00:00Z,30.2513,-88.0778,11.02,1111122 
DISL,ioos:station:DISL:DISL:1,2010-12-03T10:30:00Z,30.2513,-88.0778,10.91,1111122 
DISL,ioos:station:DISL:DISL:1,2010-12-03T11:00:00Z,30.2513,-88.0778,10.76,1111122 
DISL,ioos:station:DISL:DISL:1,2010-12-03T11:30:00Z,30.2513,-88.0778,10.85,1111122 
DISL,ioos:station:DISL:DISL:1,2010-12-03T12:00:00Z,30.2513,-88.0778,10.61,1111122 
DISL,ioos:station:DISL:DISL:1,2010-12-03T12:30:00Z,30.2513,-88.0778,10.15,1111122 
DISL,ioos:station:DISL:DISL:1,2010-12-03T13:00:00Z,30.2513,-88.0778,10.86,1111122 
DISL,ioos:station:DISL:DISL:1,2010-12-03T13:30:00Z,30.2513,-88.0778,11.61,1111122 
DISL,ioos:station:DISL:DISL:1,2010-12-03T14:00:00Z,30.2513,-88.0778,11.91,1111122 
DISL,ioos:station:DISL:DISL:1,2010-12-03T14:30:00Z,30.2513,-88.0778,12.26,1111122 
DISL,ioos:station:DISL:DISL:1,2010-12-03T15:00:00Z,30.2513,-88.0778,12.43,1111122 
DISL,ioos:station:DISL:DISL:1,2010-12-03T15:30:00Z,30.2513,-88.0778,13.12,1111122 
DISL,ioos:station:DISL:DISL:1,2010-12-03T16:00:00Z,30.2513,-88.0778,13.4,1111122 
DISL,ioos:station:DISL:DISL:1,2010-12-03T16:30:00Z,30.2513,-88.0778,14.28,1111122 
DISL,ioos:station:DISL:DISL:1,2010-12-03T17:00:00Z,30.2513,-88.0778,14.23,1111122 
DISL,ioos:station:DISL:DISL:1,2010-12-03T17:30:00Z,30.2513,-88.0778,14.57,1111122 
DISL,ioos:station:DISL:DISL:1,2010-12-03T18:00:00Z,30.2513,-88.0778,15.98,1111122 
DISL,ioos:station:DISL:DISL:1,2010-12-03T18:30:00Z,30.2513,-88.0778,16.74,1111122 
DISL,ioos:station:DISL:DISL:1,2010-12-03T19:00:00Z,30.2513,-88.0778,16.32,1111122 
DISL,ioos:station:DISL:DISL:1,2010-12-03T19:30:00Z,30.2513,-88.0778,16.53,1111122 
DISL,ioos:station:DISL:DISL:1,2010-12-03T20:00:00Z,30.2513,-88.0778,16.38,1111122 
DISL,ioos:station:DISL:DISL:1,2010-12-03T20:30:00Z,30.2513,-88.0778,16.53,1111122 
DISL,ioos:station:DISL:DISL:1,2010-12-03T21:00:00Z,30.2513,-88.0778,16.71,1111122 
DISL,ioos:station:DISL:DISL:1,2010-12-03T21:30:00Z,30.2513,-88.0778,16.58,1111122 
DISL,ioos:station:DISL:DISL:1,2010-12-03T22:00:00Z,30.2513,-88.0778,16.34,1111122 
DISL,ioos:station:DISL:DISL:1,2010-12-03T22:30:00Z,30.2513,-88.0778,15.77,1111122 
DISL,ioos:station:DISL:DISL:1,2010-12-03T23:00:00Z,30.2513,-88.0778,15.37,1111122 
DISL,ioos:station:DISL:DISL:1,2010-12-03T23:30:00Z,30.2513,-88.0778,15.53,1111122 
DISL,ioos:station:DISL:DISL:1,2010-12-04T00:00:00Z,30.2513,-88.0778,15.56,1111122 
DISL,ioos:station:DISL:DISL:1,2010-12-04T00:30:00Z,30.2513,-88.0778,15.52,1111122 
DISL,ioos:station:DISL:DISL:1,2010-12-04T01:00:00Z,30.2513,-88.0778,15.54,1111122 
DISL,ioos:station:DISL:DISL:1,2010-12-04T01:30:00Z,30.2513,-88.0778,15.66,1111122 
DISL,ioos:station:DISL:DISL:1,2010-12-04T02:00:00Z,30.2513,-88.0778,15.67,1111122 
DISL,ioos:station:DISL:DISL:1,2010-12-04T02:30:00Z,30.2513,-88.0778,15.91,1111122 
DISL,ioos:station:DISL:DISL:1,2010-12-04T03:00:00Z,30.2513,-88.0778,15.92,1111122 
DISL,ioos:station:DISL:DISL:1,2010-12-04T03:30:00Z,30.2513,-88.0778,16.09,1111122 
DISL,ioos:station:DISL:DISL:1,2010-12-04T04:00:00Z,30.2513,-88.0778,16.14,1111122 
DISL,ioos:station:DISL:DISL:1,2010-12-04T04:30:00Z,30.2513,-88.0778,16.15,1111122 
DISL,ioos:station:DISL:DISL:1,2010-12-04T05:00:00Z,30.2513,-88.0778,16.2,1111122 
DISL,ioos:station:DISL:DISL:1,2010-12-04T05:30:00Z,30.2513,-88.0778,16.17,1111122 
DISL,ioos:station:DISL:DISL:1,2010-12-04T06:00:00Z,30.2513,-88.0778,16.09,1111122 
DISL,ioos:station:DISL:DISL:1,2010-12-04T06:30:00Z,30.2513,-88.0778,16.02,1111122 
DISL,ioos:station:DISL:DISL:1,2010-12-04T07:00:00Z,30.2513,-88.0778,15.91,1111122 
DISL,ioos:station:DISL:DISL:1,2010-12-04T07:30:00Z,30.2513,-88.0778,15.9,1111122 
DISL,ioos:station:DISL:DISL:1,2010-12-04T08:00:00Z,30.2513,-88.0778,16.06,1111122 
DISL,ioos:station:DISL:DISL:1,2010-12-04T08:30:00Z,30.2513,-88.0778,15.97,1111122 
DISL,ioos:station:DISL:DISL:1,2010-12-04T09:00:00Z,30.2513,-88.0778,16.16,1111122 
DISL,ioos:station:DISL:DISL:1,2010-12-04T09:30:00Z,30.2513,-88.0778,16.28,1111122 
DISL,ioos:station:DISL:DISL:1,2010-12-04T10:00:00Z,30.2513,-88.0778,16.27,1111122 
DISL,ioos:station:DISL:DISL:1,2010-12-04T10:30:00Z,30.2513,-88.0778,16.36,1111122 
DISL,ioos:station:DISL:DISL:1,2010-12-04T11:00:00Z,30.2513,-88.0778,16.45,1111122 
DISL,ioos:station:DISL:DISL:1,2010-12-04T11:30:00Z,30.2513,-88.0778,16.44,1111122 
DISL,ioos:station:DISL:DISL:1,2010-12-04T12:00:00Z,30.2513,-88.0778,16.5,1111122 
DISL,ioos:station:DISL:DISL:1,2010-12-04T12:30:00Z,30.2513,-88.0778,16.69,1111122 
DISL,ioos:station:DISL:DISL:1,2010-12-04T13:00:00Z,30.2513,-88.0778,17.11,1111122 
DISL,ioos:station:DISL:DISL:1,2010-12-04T13:30:00Z,30.2513,-88.0778,17.4,1111122 
DISL,ioos:station:DISL:DISL:1,2010-12-04T14:00:00Z,30.2513,-88.0778,18.05,1111122 
DISL,ioos:station:DISL:DISL:1,2010-12-04T14:30:00Z,30.2513,-88.0778,17.96,1111122 
DISL,ioos:station:DISL:DISL:1,2010-12-04T15:00:00Z,30.2513,-88.0778,18.32,1111122 
DISL,ioos:station:DISL:DISL:1,2010-12-04T15:30:00Z,30.2513,-88.0778,18.77,1111122 
DISL,ioos:station:DISL:DISL:1,2010-12-04T16:00:00Z,30.2513,-88.0778,19.04,1111122 
DISL,ioos:station:DISL:DISL:1,2010-12-04T16:30:00Z,30.2513,-88.0778,19.29,1111122 
DISL,ioos:station:DISL:DISL:1,2010-12-04T17:00:00Z,30.2513,-88.0778,19.3,1111122 
DISL,ioos:station:DISL:DISL:1,2010-12-04T17:30:00Z,30.2513,-88.0778,19.43,1111122 
DISL,ioos:station:DISL:DISL:1,2010-12-04T18:00:00Z,30.2513,-88.0778,19.61,1111122 
DISL,ioos:station:DISL:DISL:1,2010-12-04T18:30:00Z,30.2513,-88.0778,19.92,1111122 
DISL,ioos:station:DISL:DISL:1,2010-12-04T19:00:00Z,30.2513,-88.0778,19.87,1111122 
DISL,ioos:station:DISL:DISL:1,2010-12-04T19:30:00Z,30.2513,-88.0778,19.63,1111122 
DISL,ioos:station:DISL:DISL:1,2010-12-04T20:00:00Z,30.2513,-88.0778,20.15,1111122 
DISL,ioos:station:DISL:DISL:1,2010-12-04T20:30:00Z,30.2513,-88.0778,20.02,1111122 
DISL,ioos:station:DISL:DISL:1,2010-12-04T21:00:00Z,30.2513,-88.0778,19.89,1111122 
DISL,ioos:station:DISL:DISL:1,2010-12-04T21:30:00Z,30.2513,-88.0778,19.63,1111122 
DISL,ioos:station:DISL:DISL:1,2010-12-04T22:00:00Z,30.2513,-88.0778,19.17,1111122 
DISL,ioos:station:DISL:DISL:1,2010-12-04T22:30:00Z,30.2513,-88.0778,18.91,1111122 
DISL,ioos:station:DISL:DISL:1,2010-12-04T23:00:00Z,30.2513,-88.0778,18.9,1111122 
DISL,ioos:station:DISL:DISL:1,2010-12-04T23:30:00Z,30.2513,-88.0778,19.02,1111122 
DISL,ioos:station:DISL:DISL:1,2010-12-05T00:00:00Z,30.2513,-88.0778,19.2,1111122 
DISL,ioos:station:DISL:DISL:1,2010-12-05T00:30:00Z,30.2513,-88.0778,19.42,1111122 
DISL,ioos:station:DISL:DISL:1,2010-12-05T01:00:00Z,30.2513,-88.0778,19.41,1111122 
DISL,ioos:station:DISL:DISL:1,2010-12-05T01:30:00Z,30.2513,-88.0778,19.32,1111122 
DISL,ioos:station:DISL:DISL:1,2010-12-05T02:00:00Z,30.2513,-88.0778,19.34,1111122 
DISL,ioos:station:DISL:DISL:1,2010-12-05T02:30:00Z,30.2513,-88.0778,19.27,1111122 
DISL,ioos:station:DISL:DISL:1,2010-12-05T03:00:00Z,30.2513,-88.0778,19.29,1111122 
DISL,ioos:station:DISL:DISL:1,2010-12-05T03:30:00Z,30.2513,-88.0778,19.19,1111122 
DISL,ioos:station:DISL:DISL:1,2010-12-05T04:00:00Z,30.2513,-88.0778,19.36,1111122 
DISL,ioos:station:DISL:DISL:1,2010-12-05T04:30:00Z,30.2513,-88.0778,17.35,1111122 
DISL,ioos:station:DISL:DISL:1,2010-12-05T05:00:00Z,30.2513,-88.0778,16.99,1111122 
DISL,ioos:station:DISL:DISL:1,2010-12-05T05:30:00Z,30.2513,-88.0778,16.85,1111122 
DISL,ioos:station:DISL:DISL:1,2010-12-05T06:00:00Z,30.2513,-88.0778,16.66,1111122 
DISL,ioos:station:DISL:DISL:1,2010-12-05T06:30:00Z,30.2513,-88.0778,16.71,1111122 
DISL,ioos:station:DISL:DISL:1,2010-12-05T07:00:00Z,30.2513,-88.0778,16.51,1111122 
DISL,ioos:station:DISL:DISL:1,2010-12-05T07:30:00Z,30.2513,-88.0778,15.98,1111122 
DISL,ioos:station:DISL:DISL:1,2010-12-05T08:00:00Z,30.2513,-88.0778,15.57,1111122 
DISL,ioos:station:DISL:DISL:1,2010-12-05T08:30:00Z,30.2513,-88.0778,14.7,1111122 
DISL,ioos:station:DISL:DISL:1,2010-12-05T09:00:00Z,30.2513,-88.0778,13.92,1111122 
DISL,ioos:station:DISL:DISL:1,2010-12-05T09:30:00Z,30.2513,-88.0778,13.27,1111122 
DISL,ioos:station:DISL:DISL:1,2010-12-05T10:00:00Z,30.2513,-88.0778,12.57,1111122 
DISL,ioos:station:DISL:DISL:1,2010-12-05T10:30:00Z,30.2513,-88.0778,12.09,1111122 
DISL,ioos:station:DISL:DISL:1,2010-12-05T11:00:00Z,30.2513,-88.0778,11.41,1111122 
DISL,ioos:station:DISL:DISL:1,2010-12-05T11:30:00Z,30.2513,-88.0778,10.36,1111122 
DISL,ioos:station:DISL:DISL:1,2010-12-05T12:00:00Z,30.2513,-88.0778,9.56,1111122 
DISL,ioos:station:DISL:DISL:1,2010-12-05T12:30:00Z,30.2513,-88.0778,8.31,1111122 
DISL,ioos:station:DISL:DISL:1,2010-12-05T13:00:00Z,30.2513,-88.0778,7.61,1111122 
DISL,ioos:station:DISL:DISL:1,2010-12-05T13:30:00Z,30.2513,-88.0778,7.67,1111122 
DISL,ioos:station:DISL:DISL:1,2010-12-05T14:00:00Z,30.2513,-88.0778,7.02,1111122 
DISL,ioos:station:DISL:DISL:1,2010-12-05T14:30:00Z,30.2513,-88.0778,7.1,1111122 
DISL,ioos:station:DISL:DISL:1,2010-12-05T15:00:00Z,30.2513,-88.0778,7.25,1111122 
DISL,ioos:station:DISL:DISL:1,2010-12-05T15:30:00Z,30.2513,-88.0778,7.07,1111122 
DISL,ioos:station:DISL:DISL:1,2010-12-05T16:00:00Z,30.2513,-88.0778,7.1,1111122 
DISL,ioos:station:DISL:DISL:1,2010-12-05T16:30:00Z,30.2513,-88.0778,7.88,1111122 
DISL,ioos:station:DISL:DISL:1,2010-12-05T17:00:00Z,30.2513,-88.0778,7.82,1111122 
DISL,ioos:station:DISL:DISL:1,2010-12-05T17:30:00Z,30.2513,-88.0778,8.04,1111122 
DISL,ioos:station:DISL:DISL:1,2010-12-05T18:00:00Z,30.2513,-88.0778,8.31,1111122 
DISL,ioos:station:DISL:DISL:1,2010-12-05T18:30:00Z,30.2513,-88.0778,9.02,1111122 
DISL,ioos:station:DISL:DISL:1,2010-12-05T19:00:00Z,30.2513,-88.0778,9.43,1111122 
DISL,ioos:station:DISL:DISL:1,2010-12-05T19:30:00Z,30.2513,-88.0778,9.76,1111122 
DISL,ioos:station:DISL:DISL:1,2010-12-05T20:00:00Z,30.2513,-88.0778,10.35,1111122 
DISL,ioos:station:DISL:DISL:1,2010-12-05T20:30:00Z,30.2513,-88.0778,10.57,1111122 
DISL,ioos:station:DISL:DISL:1,2010-12-05T21:00:00Z,30.2513,-88.0778,10.6,1111122 
DISL,ioos:station:DISL:DISL:1,2010-12-05T21:30:00Z,30.2513,-88.0778,10.66,1111122 
DISL,ioos:station:DISL:DISL:1,2010-12-05T22:00:00Z,30.2513,-88.0778,10.56,1111122 
DISL,ioos:station:DISL:DISL:1,2010-12-05T22:30:00Z,30.2513,-88.0778,10.43,1111122 
DISL,ioos:station:DISL:DISL:1,2010-12-05T23:00:00Z,30.2513,-88.0778,10.24,1111122 
DISL,ioos:station:DISL:DISL:1,2010-12-05T23:30:00Z,30.2513,-88.0778,10.12,1111122 
DISL,ioos:station:DISL:DISL:1,2010-12-06T00:00:00Z,30.2513,-88.0778,9.7,1111122 
DISL,ioos:station:DISL:DISL:1,2010-12-06T00:30:00Z,30.2513,-88.0778,9.15,1111122 
DISL,ioos:station:DISL:DISL:1,2010-12-06T01:00:00Z,30.2513,-88.0778,8.96,1111122 
DISL,ioos:station:DISL:DISL:1,2010-12-06T01:30:00Z,30.2513,-88.0778,9.06,1111122 
DISL,ioos:station:DISL:DISL:1,2010-12-06T02:00:00Z,30.2513,-88.0778,8.5,1111122 
DISL,ioos:station:DISL:DISL:1,2010-12-06T02:30:00Z,30.2513,-88.0778,8.28,1111122 
DISL,ioos:station:DISL:DISL:1,2010-12-06T03:00:00Z,30.2513,-88.0778,8.14,1111122 
DISL,ioos:station:DISL:DISL:1,2010-12-06T03:30:00Z,30.2513,-88.0778,7.93,1111122 
DISL,ioos:station:DISL:DISL:1,2010-12-06T04:00:00Z,30.2513,-88.0778,7.33,1111122 
DISL,ioos:station:DISL:DISL:1,2010-12-06T04:30:00Z,30.2513,-88.0778,6.95,1111122 
DISL,ioos:station:DISL:DISL:1,2010-12-06T05:00:00Z,30.2513,-88.0778,6.642,1111122 
DISL,ioos:station:DISL:DISL:1,2010-12-06T05:30:00Z,30.2513,-88.0778,6.825,1111122 
DISL,ioos:station:DISL:DISL:1,2010-12-06T06:00:00Z,30.2513,-88.0778,6.411,1111122 
DISL,ioos:station:DISL:DISL:1,2010-12-06T06:30:00Z,30.2513,-88.0778,5.942,1111122 
DISL,ioos:station:DISL:DISL:1,2010-12-06T07:00:00Z,30.2513,-88.0778,5.827,1111122 
DISL,ioos:station:DISL:DISL:1,2010-12-06T07:30:00Z,30.2513,-88.0778,5.216,1111122 
DISL,ioos:station:DISL:DISL:1,2010-12-06T08:00:00Z,30.2513,-88.0778,5.063,1111122 
DISL,ioos:station:DISL:DISL:1,2010-12-06T08:30:00Z,30.2513,-88.0778,4.837,1111122 
DISL,ioos:station:DISL:DISL:1,2010-12-06T09:00:00Z,30.2513,-88.0778,3.799,1111122 
DISL,ioos:station:DISL:DISL:1,2010-12-06T09:30:00Z,30.2513,-88.0778,3.903,1111122 
DISL,ioos:station:DISL:DISL:1,2010-12-06T10:00:00Z,30.2513,-88.0778,3.352,1111122 
DISL,ioos:station:DISL:DISL:1,2010-12-06T10:30:00Z,30.2513,-88.0778,2.593,1111122 
DISL,ioos:station:DISL:DISL:1,2010-12-06T11:00:00Z,30.2513,-88.0778,2.386,1111122 
DISL,ioos:station:DISL:DISL:1,2010-12-06T11:30:00Z,30.2513,-88.0778,2.588,1111122 
DISL,ioos:station:DISL:DISL:1,2010-12-06T12:00:00Z,30.2513,-88.0778,2.682,1111122 
DISL,ioos:station:DISL:DISL:1,2010-12-06T12:30:00Z,30.2513,-88.0778,2.571,1111122 
DISL,ioos:station:DISL:DISL:1,2010-12-06T13:00:00Z,30.2513,-88.0778,2.361,1111122 
DISL,ioos:station:DISL:DISL:1,2010-12-06T13:30:00Z,30.2513,-88.0778,2.19,1111122 
DISL,ioos:station:DISL:DISL:1,2010-12-06T14:00:00Z,30.2513,-88.0778,2.208,1111122 
DISL,ioos:station:DISL:DISL:1,2010-12-06T14:30:00Z,30.2513,-88.0778,2.264,1111122 
DISL,ioos:station:DISL:DISL:1,2010-12-06T15:00:00Z,30.2513,-88.0778,2.527,1111122 
DISL,ioos:station:DISL:DISL:1,2010-12-06T15:30:00Z,30.2513,-88.0778,2.897,1111122 
DISL,ioos:station:DISL:DISL:1,2010-12-06T16:00:00Z,30.2513,-88.0778,3.218,1111122 
DISL,ioos:station:DISL:DISL:1,2010-12-06T16:30:00Z,30.2513,-88.0778,3.969,1111122 
DISL,ioos:station:DISL:DISL:1,2010-12-06T17:00:00Z,30.2513,-88.0778,4.721,1111122 
DISL,ioos:station:DISL:DISL:1,2010-12-06T17:30:00Z,30.2513,-88.0778,5.265,1111122 
DISL,ioos:station:DISL:DISL:1,2010-12-06T18:00:00Z,30.2513,-88.0778,6.499,1111122 
DISL,ioos:station:DISL:DISL:1,2010-12-06T18:30:00Z,30.2513,-88.0778,6.825,1111122 
DISL,ioos:station:DISL:DISL:1,2010-12-06T19:00:00Z,30.2513,-88.0778,7.26,1111122 
DISL,ioos:station:DISL:DISL:1,2010-12-06T19:30:00Z,30.2513,-88.0778,7.72,1111122 
DISL,ioos:station:DISL:DISL:1,2010-12-06T20:00:00Z,30.2513,-88.0778,8.32,1111122 
DISL,ioos:station:DISL:DISL:1,2010-12-06T20:30:00Z,30.2513,-88.0778,8.67,1111122 
DISL,ioos:station:DISL:DISL:1,2010-12-06T21:00:00Z,30.2513,-88.0778,8.71,1111122 
DISL,ioos:station:DISL:DISL:1,2010-12-06T21:30:00Z,30.2513,-88.0778,8.84,1111122 
DISL,ioos:station:DISL:DISL:1,2010-12-06T22:00:00Z,30.2513,-88.0778,8.8,1111122 
DISL,ioos:station:DISL:DISL:1,2010-12-06T22:30:00Z,30.2513,-88.0778,8.57,1111122 
DISL,ioos:station:DISL:DISL:1,2010-12-06T23:00:00Z,30.2513,-88.0778,8.53,1111122 
DISL,ioos:station:DISL:DISL:1,2010-12-06T23:30:00Z,30.2513,-88.0778,8.29,1111122 
DISL,ioos:station:DISL:DISL:1,2010-12-07T00:00:00Z,30.2513,-88.0778,8.24,1111122 